AirNav   Duncan Aviation - Near you to keep you flying
 
 1433 users online  

54NC Dillard Airport
Winfall, North Carolina, USA

GOING TO WINFALL?


FAA INFORMATION EFFECTIVE 16 JUNE 2022

Location

FAA Identifier: 54NC
Lat/Long: 36-14-22.0000N 076-25-02.0000W
36-14.366667N 076-25.033333W
36.2394444,-76.4172222
(estimated)
Elevation: 15 ft. / 5 m (estimated)
Variation: 10W (2000)
From city: 4 miles NE of WINFALL, NC
Time zone: UTC -4 (UTC -5 during Standard Time)
Zip code: 27944

Airport Operations

Airport use: Private use. Permission required prior to landing
Activation date: 11/2000
Control tower: no
ARTCC: WASHINGTON CENTER
FSS: RALEIGH FLIGHT SERVICE STATION
Attendance: IREG
Wind indicator: yes
Segmented circle: no

Airport Communications

WX ASOS at ECG (12 nm E): 124.375 (252-338-4750)
WX AWOS-3 at EDE (15 nm SW): 118.275 (252-482-0757)

Nearby radio navigation aids

VOR radial/distance  VOR name  Freq  Var
ECGr272/11.7ELIZABETH CITY VOR/DME112.5007W
CVIr119/23.4COFIELD VORTAC114.6009W
RBXr307/39.8WRIGHT BROTHERS VOR/DME111.6008W

 
NDB name  Hdg/Dist  Freq  Var  ID
WOODVILLE266/5.925410WLLW .-.. .-.. .--

Airport Services

Runway Information

Runway 7/25

Dimensions: 2700 x 85 ft. / 823 x 26 m
Surface: turf
RUNWAY 7  RUNWAY 25
Traffic pattern: leftleft
Obstructions: 40 ft. pline, 250 ft. from runwaynone

Airport Ownership and Management from official FAA records

Ownership: Privately-owned
Owner: DILLARD WARD
ROUTE 2 BOX 259
HERTFORD, NC 27944
Phone 252-426-9676
Manager: CRAIG CRAFT
603 SWING GATE ROAD
HERTFORD, NC 27944
Phone 252-426-7613

Airport Operational Statistics

Aircraft based on the field: 3
Single engine airplanes: 3
    

Additional Remarks

FOR CD CTC NORFOLK APCH AT 757-464-0757.

Instrument Procedures

There are no published instrument procedures at 54NC.

Some nearby airports with instrument procedures:

KECG - Elizabeth City Coast Guard Air Station/Regional Airport (12 nm E)
KEDE - Northeastern Regional Airport (15 nm SW)
KONX - Currituck County Regional Airport (22 nm NE)
KCPK - Chesapeake Regional Airport (26 nm N)
KSFQ - Suffolk Executive Airport (28 nm N)
 
Loc | Ops | Rwys | IFR | FBO | Links
Com | Nav | Svcs | Stats | Notes
Area around 54NC (Dillard Airport)
 
Road maps at: MapQuest Bing Google
 
Aerial photo
No photo
 
Sectional chart

 
Airport distance calculator
Flying to Dillard Airport? Find the distance to fly.

From to 54NC

Sunrise and sunset
Times for 06-Jul-2022
 Local
(UTC-4)
 Zulu
(UTC)
Morning civil twilight05:2509:25
Sunrise05:5509:55
Sunset20:2500:25
Evening civil twilight20:5500:55

Current date and time
Zulu (UTC)  06-Jul-2022 22:13:23
Local (UTC-4)  06-Jul-2022 18:13:23
 
METAR
KECG 
11nm E 
061954Z 24005KT 10SM CLR 34/22 A2989 RMK AO2 SLP122 T03390222
KEDE 
15nm SW 
062035Z AUTO 20007KT 10SM CLR 35/26 A2989 RMK AO2 T03450262
KONX 
22nm NE 
062035Z AUTO 22005KT 10SM CLR 33/17 A2988 RMK AO2 T03330173
TAF
KECG 
11nm E 
061735Z 0618/0718 VRB06KT P6SM BKN150 FM062200 21007KT P6SM VCTS SCT040CB FM070300 22005KT P6SM VCSH BKN040 BKN070 FM070900 23004KT P6SM SCT010 BKN080
NOTAMs
Click for the latest NOTAMs
NOTAMs are issued by the DoD/FAA and will open in a separate window not controlled by AirNav.

 

 
 

Would you like to see your business listed on this page?

 If your business provides an interesting product or service to pilots, flight crews, aircraft, or users of the Dillard Airport, you should consider listing it here.  To start the listing process, click on the button below
 
Add a business
 

Other Pages about Dillard Airport

Update a link
 
Copyright © AirNav, LLC. All rights reserved. Privacy Policy  Contact